Location: Escondida
(34.1015°N, 106.8964°W)
Time: 23:40:37
(UTC+00:00)

STARLINK-36105 - Visible Passes

Search period start: 13 March 2026 00:00
Search period end: 23 March 2026 00:00
Orbit: 482 x 484 km, 43.0° (Epoch: 13 March)

Date Brightness Start Highest point End Pass type
(mag) Time Alt. Az. Time Alt. Az. Time Alt. Az.
13 Mar 2.7 02:37:49 10° WNW 02:41:33 57° SSW 02:42:32 41° SSE visible
14 Mar 2.7 02:10:03 10° WNW 02:13:47 59° SSW 02:16:32 17° SE visible
15 Mar 2.8 01:42:15 10° WNW 01:45:59 62° SSW 01:49:42 10° SE visible
